Hourly Weather Townsville

Today, 8 July, Wednesday

Time Temperature Precipitation Wind Pressure Humidity
00:00 +17°C° 0 mm 4 mps 758 mmHg 85%
01:00 +15°C° 0 mm 4 mps 758 mmHg 88%
02:00 +15°C° 0 mm 4 mps 757 mmHg 89%
03:00 +15°C° 0 mm 4 mps 757 mmHg 91%
04:00 +16°C° 0 mm 3 mps 757 mmHg 92%
05:00 +16°C° 0 mm 3 mps 757 mmHg 92%
06:00 +16°C° 0 mm 3 mps 757 mmHg 93%
07:00 +16°C° 0 mm 3 mps 757 mmHg 93%
08:00 +18°C° 0 mm 3 mps 757 mmHg 84%
09:00 +21°C° 0 mm 4 mps 757 mmHg 76%
10:00 +23°C° 0 mm 4 mps 757 mmHg 67%
11:00 +23°C° 0.1 mm 5 mps 757 mmHg 66%
12:00 +25°C° 0.1 mm 5 mps 757 mmHg 65%
13:00 +24°C° 0.1 mm 6 mps 756 mmHg 65%
14:00 +24°C° 0.2 mm 6 mps 756 mmHg 67%
15:00 +24°C° 0.2 mm 6 mps 756 mmHg 69%
16:00 +24°C° 0.2 mm 6 mps 755 mmHg 71%
17:00 +23°C° 0.2 mm 6 mps 756 mmHg 76%
18:00 +21°C° 0.2 mm 6 mps 756 mmHg 82%
19:00 +20°C° 0.2 mm 5 mps 757 mmHg 87%
20:00 +19°C° 0.1 mm 5 mps 757 mmHg 88%
21:00 +19°C° 0.1 mm 5 mps 757 mmHg 90%
22:00 +19°C° 0.1 mm 5 mps 757 mmHg 91%
23:00 +19°C° 0.1 mm 4 mps 757 mmHg 90%

Tomorrow, 9 July, Thursday

Time Temperature Precipitation Wind Pressure Humidity
00:00 +19°C° 0.1 mm 4 mps 757 mmHg 89%
01:00 +19°C° 0.1 mm 4 mps 757 mmHg 88%
02:00 +19°C° 0.2 mm 4 mps 757 mmHg 89%
03:00 +19°C° 0.2 mm 4 mps 756 mmHg 89%
04:00 +19°C° 0.2 mm 4 mps 756 mmHg 89%
05:00 +19°C° 0.2 mm 4 mps 756 mmHg 90%
06:00 +19°C° 0.2 mm 4 mps 757 mmHg 91%
07:00 +19°C° 0.2 mm 4 mps 757 mmHg 92%
08:00 +20°C° 0.4 mm 5 mps 757 mmHg 90%
09:00 +20°C° 0.4 mm 5 mps 757 mmHg 88%
10:00 +21°C° 0.4 mm 6 mps 758 mmHg 86%
11:00 +22°C° 0.4 mm 6 mps 757 mmHg 83%
12:00 +22°C° 0.4 mm 6 mps 757 mmHg 80%
13:00 +23°C° 0.4 mm 6 mps 756 mmHg 78%
14:00 +23°C° 0.1 mm 7 mps 756 mmHg 74%
15:00 +24°C° 0.1 mm 7 mps 756 mmHg 71%
16:00 +24°C° 0.1 mm 7 mps 756 mmHg 68%
17:00 +23°C° 0.1 mm 7 mps 756 mmHg 72%
18:00 +21°C° 0.1 mm 6 mps 757 mmHg 77%
19:00 +20°C° 0.1 mm 6 mps 757 mmHg 82%
20:00 +20°C° 0 mm 5 mps 758 mmHg 84%
21:00 +19°C° 0 mm 5 mps 758 mmHg 86%
22:00 +19°C° 0 mm 5 mps 758 mmHg 88%
23:00 +18°C° 0 mm 4 mps 758 mmHg 88%

Day after tomorrow, 10 July, Friday

Time Temperature Precipitation Wind Pressure Humidity
00:00 +18°C° 0 mm 4 mps 758 mmHg 89%
01:00 +17°C° 0 mm 4 mps 758 mmHg 90%
02:00 +17°C° 0 mm 4 mps 758 mmHg 90%
03:00 +17°C° 0 mm 3 mps 757 mmHg 90%
04:00 +17°C° 0 mm 3 mps 757 mmHg 90%
05:00 +18°C° 0 mm 3 mps 757 mmHg 88%
06:00 +18°C° 0 mm 3 mps 757 mmHg 86%
07:00 +18°C° 0 mm 3 mps 758 mmHg 84%
08:00 +20°C° 0 mm 3 mps 758 mmHg 80%
09:00 +21°C° 0 mm 3 mps 758 mmHg 75%
10:00 +24°C° 0 mm 3 mps 758 mmHg 71%
11:00 +25°C° 0 mm 4 mps 758 mmHg 67%
12:00 +25°C° 0 mm 4 mps 757 mmHg 63%
13:00 +26°C° 0 mm 5 mps 756 mmHg 60%
14:00 +26°C° 0 mm 5 mps 756 mmHg 58%
15:00 +26°C° 0 mm 5 mps 756 mmHg 57%
16:00 +26°C° 0 mm 5 mps 756 mmHg 55%
17:00 +23°C° 0 mm 4 mps 756 mmHg 64%
18:00 +21°C° 0 mm 3 mps 756 mmHg 73%
19:00 +20°C° 0 mm 3 mps 756 mmHg 83%
20:00 +19°C° 0 mm 3 mps 757 mmHg 84%
21:00 +19°C° 0 mm 3 mps 757 mmHg 85%
22:00 +19°C° 0 mm 3 mps 757 mmHg 86%
23:00 +18°C° 0 mm 3 mps 757 mmHg 87%

11 July, Saturday

Time Temperature Precipitation Wind Pressure Humidity
00:00 +18°C° 0 mm 3 mps 757 mmHg 89%
01:00 +18°C° 0 mm 3 mps 756 mmHg 91%
02:00 +18°C° 0 mm 3 mps 756 mmHg 91%
03:00 +18°C° 0 mm 3 mps 756 mmHg 92%
04:00 +18°C° 0 mm 3 mps 755 mmHg 93%
05:00 +18°C° 0 mm 3 mps 756 mmHg 93%
06:00 +18°C° 0 mm 3 mps 756 mmHg 93%
07:00 +19°C° 0 mm 3 mps 756 mmHg 93%
08:00 +19°C° 0.1 mm 3 mps 756 mmHg 91%
09:00 +20°C° 0.1 mm 3 mps 756 mmHg 88%
10:00 +21°C° 0.1 mm 3 mps 756 mmHg 86%
11:00 +21°C° 0.1 mm 4 mps 756 mmHg 84%
12:00 +22°C° 0.1 mm 4 mps 755 mmHg 81%
13:00 +23°C° 0.1 mm 4 mps 754 mmHg 79%
14:00 +23°C° 0.1 mm 4 mps 754 mmHg 79%
15:00 +22°C° 0.1 mm 4 mps 754 mmHg 79%
16:00 +22°C° 0.1 mm 4 mps 754 mmHg 80%
17:00 +22°C° 0.1 mm 4 mps 754 mmHg 82%
18:00 +22°C° 0.1 mm 5 mps 754 mmHg 83%
19:00 +21°C° 0.1 mm 5 mps 755 mmHg 85%
20:00 +21°C° 0 mm 5 mps 755 mmHg 86%
21:00 +20°C° 0 mm 4 mps 755 mmHg 87%
22:00 +20°C° 0 mm 4 mps 755 mmHg 88%
23:00 +20°C° 0 mm 4 mps 755 mmHg 89%

12 July, Sunday

Time Temperature Precipitation Wind Pressure Humidity
00:00 +20°C° 0 mm 4 mps 755 mmHg 90%
01:00 +19°C° 0 mm 4 mps 754 mmHg 91%
02:00 +19°C° 0 mm 4 mps 754 mmHg 91%
03:00 +19°C° 0 mm 4 mps 754 mmHg 90%
04:00 +19°C° 0 mm 3 mps 754 mmHg 90%
05:00 +19°C° 0 mm 3 mps 754 mmHg 90%
06:00 +19°C° 0 mm 3 mps 755 mmHg 90%
07:00 +19°C° 0 mm 3 mps 755 mmHg 90%
08:00 +20°C° 0 mm 3 mps 755 mmHg 87%
09:00 +21°C° 0 mm 3 mps 755 mmHg 84%
10:00 +21°C° 0 mm 2 mps 755 mmHg 81%
11:00 +22°C° 0 mm 3 mps 755 mmHg 80%
12:00 +22°C° 0 mm 3 mps 755 mmHg 79%
13:00 +22°C° 0 mm 3 mps 754 mmHg 78%
14:00 +24°C° 0.1 mm 3 mps 754 mmHg 76%
15:00 +24°C° 0.1 mm 3 mps 754 mmHg 75%
16:00 +24°C° 0.1 mm 3 mps 754 mmHg 74%
17:00 +24°C° 0 mm 3 mps 754 mmHg 77%
18:00 +22°C° 0 mm 3 mps 754 mmHg 80%
19:00 +21°C° 0 mm 3 mps 755 mmHg 84%
20:00 +21°C° 0 mm 3 mps 755 mmHg 84%
21:00 +21°C° 0 mm 2 mps 755 mmHg 85%
22:00 +20°C° 0 mm 2 mps 756 mmHg 85%
23:00 +20°C° 0 mm 2 mps 756 mmHg 86%

13 July, Monday

Time Temperature Precipitation Wind Pressure Humidity
00:00 +20°C° 0 mm 2 mps 756 mmHg 86%
01:00 +20°C° 0 mm 2 mps 755 mmHg 86%
02:00 +20°C° 0 mm 2 mps 755 mmHg 87%
03:00 +20°C° 0 mm 2 mps 755 mmHg 87%
04:00 +20°C° 0 mm 2 mps 755 mmHg 87%
05:00 +20°C° 0 mm 3 mps 756 mmHg 88%
06:00 +19°C° 0 mm 3 mps 756 mmHg 89%
07:00 +19°C° 0 mm 3 mps 756 mmHg 90%
08:00 +20°C° 0 mm 3 mps 757 mmHg 79%
09:00 +21°C° 0 mm 4 mps 757 mmHg 68%
10:00 +23°C° 0 mm 4 mps 757 mmHg 58%
11:00 +25°C° 0 mm 4 mps 757 mmHg 55%
12:00 +26°C° 0 mm 4 mps 756 mmHg 52%
13:00 +27°C° 0 mm 4 mps 756 mmHg 49%
14:00 +27°C° 0 mm 3 mps 755 mmHg 50%
15:00 +27°C° 0 mm 3 mps 755 mmHg 51%
16:00 +27°C° 0 mm 3 mps 755 mmHg 52%
17:00 +26°C° 0 mm 3 mps 755 mmHg 54%
18:00 +24°C° 0 mm 3 mps 756 mmHg 56%
19:00 +22°C° 0 mm 4 mps 756 mmHg 58%
20:00 +21°C° 0 mm 4 mps 757 mmHg 57%
21:00 +21°C° 0 mm 4 mps 757 mmHg 56%
22:00 +20°C° 0 mm 4 mps 758 mmHg 55%
23:00 +19°C° 0 mm 4 mps 757 mmHg 49%
Show more